Regional Weather Roundup
Issued by NWS

Home | Current Version | Previous Version | Graphics & Text | Print | Product List | Glossary On
Versions: 1 2 3 4 5 6 7 8 9 10 11 12 13 14 15 16 17 18 19 20 21 22 23 24 25 26 27 28 29 30 31 32 33 34 35 36 37 38 39 40 41 42 43 44 45 46 47 48 49 50
000
ASUS45 KSLC 281110
RWRUT

UTAH REGIONAL WEATHER ROUNDUP
NATIONAL WEATHER SERVICE SALT LAKE CITY UT
400 AM MST SAT FEB 28 2015

UTZ001>011-023>025-281200-

NORTHERN UTAH

CITY           SKY/WX    TMP DP  RH WIND       PRES   REMARKS
BRIGHAM CITY   CLEAR     28  23  82 NW5       29.70R WCI  23
HILL AFB       PTCLDY    30  17  58 E17G24    29.67S WCI  19
LOGAN          CLEAR     24  20  84 CALM      29.72S
OGDEN          PTCLDY    25  24  96 W3        29.67S
PROVO AIRPORT  PTCLDY    25  18  74 E3        29.67F
SALT LAKE CITY MOCLDY    32  21  64 S9        29.67F WCI  24
VERNAL         CLOUDY    25  18  74 W5        29.77S WCI  19
WENDOVER       CLOUDY    37  25  60 N15       29.64S WCI  28
HEBER CITY     CLEAR     18  14  86 CALM      29.71F
WEST JORDAN    CLEAR     27  21  80 CALM      29.67F

$$

UTZ012>022-026-027-281200-

SOUTHERN/CENTRAL UTAH

CITY           SKY/WX    TMP DP  RH WIND       PRES   REMARKS
BLANDING       CLOUDY    29  29  98 E3        29.81S
BRYCE CANYON   SNOW      25  23  92 SE7       29.64F VSB 1/2 WCI  17
CEDAR CITY     LGT SNOW  33  31  92 SE9G22    29.58S FOG     WCI  25
DELTA          CLOUDY    33  21  61 CALM      29.59F
HANKSVILLE     CLOUDY    32  30  93 CALM      29.75S
MILFORD        CLOUDY    30  17  58 E5        29.59S WCI  25
MOAB/CYNLANDS  CLEAR     31  24  75 SE5       29.72F WCI  26
PRICE          CLOUDY    31  24  75 E6        29.70F WCI  25
ST GEORGE      CLOUDY    43  37  81 NE8       29.64F
KANAB          CLOUDY    32  32 100 CALM      29.68F

$$

REGIONAL REPORTS     COLORADO/ARIZONA

CITY           SKY/WX    TMP DP  RH WIND       PRES   REMARKS
CRAIG, CO        N/A     18  10  71 MISG      29.78S
GRAND JUNCTION CLEAR     24  20  84 E5        29.76F WCI  18
RIFLE          CLEAR     20  15  81 CALM      29.80S
MONTROSE       PTCLDY    15  11  83 SE8       29.80F WCI   4
CORTEZ         CLOUDY    28  27  96 CALM      29.75F
PAGE, AZ       LGT SNOW  34  31  88 E5        29.68F FOG     WCI  30
GRAND CANYON   CLOUDY    36  32  85 SW17G25   29.66F WCI  26
KINGMAN        MOCLDY    48  32  53 S9        29.64S
FLAGSTAFF      CLOUDY    36  32  85 SW24G30   29.68F WCI  24

$$

REGIONAL REPORTS    NEVADA/IDAHO/WYOMING

CITY           SKY/WX    TMP DP  RH WIND       PRES   REMARKS
LAS VEGAS, NV  MOCLDY    54  36  50 S13       29.54R
ELY            LGT SNOW  28  28 100 NW6       29.58F FOG     WCI  22
ELKO           FOG       30  29  96 SW3       29.60S VSB 1/2
POCATELLO, ID  CLEAR     21  19  92 NE12      29.74S WCI   9
BURLEY         MOCLDY    29  22  75 E16G23    29.68F WCI  17
EVANSTON, WY   CLEAR     16  14  92 E12       29.69S WCI   3
ROCK SPRINGS   CLEAR     10   6  84 NE17      29.77S WCI  -8

$$


USA.gov is the U.S. government's official web portal to all federal, state and local government web resources and services.